Location: Newark
(7.1028°S, 35.3258°W)
Time: 11:36:28
(UTC+00:00)

Hubble Space Telescope - Pass Details

Date: 20 January 2020
Orbit: 536 x 540 km, 28.5° (Epoch: 23 February)

Event Time Altitude Azimuth Distance (km) Brightness Sun altitude
Rises 22:22:26 0° 292° (WNW) 2,671 5.0 -22.8°
Reaches altitude 10° 22:24:43 10° 287° (WNW) 1,782 4.0 -23.4°
Maximum altitude 22:28:46 56° 209° (SSW) 640 1.3 -24.3°
Enters shadow 22:29:10 53° 183° (S) 661 1.3 -24.4°
